Find Starlink 35926

NORAD ID: 66642 Int'l Des: 2025-271 Owner: SPXS Country: US Constellation: starlink operational
LEOCIRCULAR

リアルタイム位置

3D地球を読み込み中...

Starlink 35926について

説明を読み込み中...

次回通過

Passes for default location (London). Set your location on the main map for personalized predictions.

高度履歴

Loading altitude history...

軌道要素

1 66642U 25271AB 26106.05046550 .00002864 00000-0 10878-3 0 9998
2 66642 53.1587 326.6147 0001204 85.0900 275.0239 15.30197335 23249
Epoch: Apr 16, 2026 • Age: 15 hours

現在のステータス

高度 478.4 km
速度 7.63 km/s
衛星直下点 41.29°N, 20.19°E
打ち上げ日 Nov 23, 2025
運用期間 0.3 years
タイプ internet

技術仕様

分類 Payload
質量 575.00 kg
乾燥質量 530.00 kg
総質量 575.00 kg
長さ 0.30 m
直径 4.10 m
スパン 29.00 m
形状 Box + pan
製造者 SPXS
バスタイプ Starlink V2MO
フェーズステータス In Orbit
所有者/国 SPXS/US

Most Searched